[[{"header":{"parameterUnit":"m.s-1","parameterCategory":1,"la1":30.2991,"la2":30.254,"lo1":-89.0895,"lo2":-89.0444,"dy":0.0017,"dx":0.0017,"nx":28,"ny":28,"refTime":"2024-12-09T03:00:00:Z","depth":0,"parameterNumber":2,"parameterNumberName":"U-component_of_WINDS"},"data":[0,0,0,0,0,0,0,0,0,0,0,0,0,0,0,0,0,0,0,0,0,0,0,0,0,0,0,0,0,0,0,0,0,0,0,0,0,0,0,0,0,0,0,0,0,0,0,0,0,0,0,0,0,0,0,0,0,0,-0.1504,-0.1503,0,-0.1379,-0.1378,-0.1377,-0.1388,-0.139,-0.1392,-0.1394,-0.1256,-0.125,-0.1245,0,0,0,0,0,0,0,0,0,0,0,0,0,-0.1741,-0.1736,-0.1504,-0.1502,-0.1501,-0.138,-0.1378,-0.1376,-0.1388,-0.1391,-0.1393,-0.1395,-0.1258,-0.1251,-0.1245,0,0,0,0,0,0,0,0,0,0,0,0,0,-0.1629,-0.1735,-0.1504,-0.1492,-0.149,-0.138,-0.1378,-0.1376,-0.1388,-0.1391,-0.1394,-0.1396,-0.126,-0.1252,-0.1244,-0.1134,0,0,-0.1218,-0.1215,0,0,0,0,0,0,0,0,-0.1635,-0.162,-0.1496,-0.1493,-0.149,-0.1403,-0.1411,-0.1294,-0.1387,-0.1426,-0.1394,-0.1398,-0.1302,-0.129,-0.126,-0.1127,-0.1121,-0.1218,-0.1213,-0.1209,-0.1207,0,0,0,0,0,0,0,-0.1643,-0.1626,-0.1454,-0.1494,-0.1491,-0.149,-0.1477,-0.1389,-0.1348,-0.1423,-0.1424,-0.1409,-0.1301,-0.1268,-0.1257,-0.1119,-0.1218,-0.1211,-0.1205,-0.1202,-0.0886,-0.0882,0,0,0,0,0,0,-0.1655,-0.1632,-0.1458,-0.1451,-0.1572,-0.1483,-0.1469,-0.1428,-0.135,-0.1341,-0.1407,-0.141,-0.1281,-0.1266,-0.1252,-0.1115,-0.1209,-0.1201,-0.1197,-0.0889,-0.0885,-0.0881,0,0,0,0,0,0,-0.166,-0.164,-0.1463,-0.1541,-0.1519,-0.1476,-0.1429,-0.1424,-0.1391,-0.1338,-0.1329,-0.1382,-0.1282,-0.1264,-0.1163,-0.111,-0.1198,-0.119,-0.0893,-0.0888,-0.0883,-0.0842,0,0,0,0,0,0,-0.1667,-0.1641,-0.1602,-0.1541,-0.1515,-0.138,-0.1426,-0.1419,-0.1378,-0.1381,-0.1312,-0.1303,-0.1283,-0.1175,-0.1155,-0.1101,-0.1184,-0.0898,-0.0891,-0.0885,-0.0848,-0.0836,-0.0826,0,0,0,0,0,-0.1675,-0.1594,-0.16,-0.1579,-0.1465,-0.1377,-0.1362,-0.1344,-0.1374,-0.1332,-0.1297,-0.1305,-0.1121,-0.1165,-0.1142,-0.1084,-0.0901,-0.0893,-0.0885,-0.0853,-0.0839,-0.0827,0,0,0,0,0,0,-0.1647,-0.1586,-0.1592,-0.1489,-0.1438,-0.1379,-0.1326,-0.133,-0.1267,-0.1272,-0.125,-0.1234,-0.1131,-0.1098,-0.1149,-0.0972,-0.1014,-0.1001,-0.0997,-0.0983,-0.0973,-0.0981,-0.1177,0,0,0,0,0,-0.1629,-0.1566,-0.1515,-0.1429,-0.1403,-0.1369,-0.133,-0.1321,-0.1266,-0.1243,-0.1202,-0.1145,-0.1074,-0.1027,-0.0959,-0.0844,-0.0826,-0.0793,-0.0782,-0.0774,-0.0762,-0.0694,-0.0678,-0.0856,-0.0856,-0.0856,0,0,-0.1591,-0.155,-0.1511,-0.1422,-0.1382,-0.1312,-0.1351,-0.1277,-0.1224,-0.1231,-0.1133,-0.1101,-0.1036,-0.0927,-0.0876,-0.0896,-0.0709,-0.0764,-0.0758,-0.075,-0.0685,-0.0668,-0.0653,-0.085,-0.0851,-0.0852,0,0,-0.1485,-0.145,-0.1372,-0.1332,-0.1272,-0.1249,-0.123,-0.117,-0.115,-0.1052,-0.1055,-0.099,-0.087,-0.0822,-0.0782,-0.0657,-0.066,-0.0636,-0.0577,-0.0512,-0.0498,-0.0485,-0.0436,-0.042,-0.0625,-0.0624,-0.0624,0,-0.1444,-0.1344,-0.1331,-0.1256,-0.1215,-0.1222,-0.1141,-0.1101,-0.102,-0.0989,-0.1014,-0.0861,-0.0818,-0.0696,-0.0665,-0.0634,-0.0608,-0.0642,-0.0502,-0.0489,-0.0477,-0.043,-0.0412,-0.0622,-0.0622,-0.0622,-0.0623,0,-0.1294,-0.1224,-0.1168,-0.1093,-0.1046,-0.0968,-0.094,-0.0893,-0.0888,-0.0861,-0.076,-0.0709,-0.0629,-0.06,-0.0593,-0.0475,-0.0489,-0.0508,-0.0549,-0.0457,-0.0412,-0.0395,-0.0617,-0.0618,-0.0619,-0.062,0,0,-0.1165,-0.1084,-0.1063,-0.1028,-0.0962,-0.0905,-0.0826,-0.0751,-0.071,-0.0653,-0.0583,-0.0481,-0.0497,-0.0452,-0.0439,-0.0383,-0.0282,-0.0408,-0.0405,-0.0382,-0.0144,-0.0127,-0.0107,-0.0285,-0.0282,-0.0279,-0.0148,0,-0.105,-0.0914,-0.0899,-0.0776,-0.0708,-0.0714,-0.0644,-0.0593,-0.0566,-0.0502,-0.0471,-0.0397,-0.0427,-0.0399,-0.0343,-0.0306,-0.0233,-0.0316,-0.0214,-0.0211,-0.0227,-0.0085,-0.0067,0.0054,-0.0131,-0.0128,-0.0126,0,-0.0897,-0.0839,-0.0709,-0.065,-0.0621,-0.0559,-0.0488,-0.0428,-0.0369,-0.0353,-0.0303,-0.0297,-0.0211,-0.0258,-0.0136,-0.0193,-0.0151,-0.0126,-0.012,-0.0107,-0.016,-0.0063,0.0092,0.0112,-0.0099,-0.0101,-0.0103,0,-0.0811,-0.07,-0.0607,-0.0577,-0.0507,-0.0463,-0.0431,-0.0375,-0.033,-0.0267,-0.0236,-0.0163,-0.0121,-0.0062,-0.0035,-0.0073,0.0087,0.0041,0.0107,0.0107,0.0144,0.0142,0.0313,0.0164,0.0164,0.0164,0.0163,0,-0.0681,-0.0601,-0.0568,-0.051,-0.0419,-0.0402,-0.031,-0.0279,-0.023,-0.0163,-0.0163,-0.0099,-0.007,-0.0001,0.0021,0.0122,0.0139,0.0158,0.0164,0.0161,0.0159,0.0192,0.0186,0.0169,0.0168,0.0167,0.0166,0,-0.0569,-0.0544,-0.0443,-0.0385,-0.0368,-0.0303,-0.0251,-0.0193,-0.0168,-0.0083,-0.0062,-0.002,0.0062,0.0093,0.0194,0.0209,0.0326,0.0323,0.0305,0.0308,0.0374,0.0369,0.0575,0.0605,0.0433,0.0434,0.0436,0,-0.0486,-0.0424,-0.036,-0.0317,-0.0284,-0.0215,-0.017,-0.015,-0.0102,-0.0029,0.0022,0.0102,0.0168,0.0299,0.0342,0.042,0.0421,0.0488,0.0434,0.0429,0.0428,0.0425,0.0434,0.05,0.0501,0.0503,0.0504,0,-0.034,-0.0331,-0.0267,-0.0198,-0.0145,-0.0089,-0.0034,0.0002,0.0031,0.0086,0.0167,0.0218,0.032,0.0402,0.0482,0.052,0.052,0.052,0.0541,0.054,0.0529,0.054,0.0337,0.0516,0.0515,0.0514,0.0514,0.0513,-0.0237,-0.0181,-0.0127,-0.0055,-0.0013,0.0039,0.0097,0.0129,0.0196,0.0279,0.0287,0.0376,0.0437,0.0544,0.0585,0.0659,0.0642,0.067,0.0678,0.0686,0.0692,0.0513,0.0673,0.0673,0.0672,0.0672,0.0672,0,-0.0087,-0.0053,0.0012,0.0088,0.0146,0.0134,0.0195,0.0246,0.0323,0.0377,0.0442,0.0538,0.0618,0.0666,0.0747,0.0797,0.0799,0.0818,0.0817,0.0827,0.0701,0.0677,0.0815,0.0815,0.0815,0.0815,0.0815,0.0815,-0.0003,0.0092,0.0108,0.0226,0.0261,0.0346,0.0382,0.0431,0.0475,0.0581,0.0646,0.0676,0.073,0.0815,0.0889,0.0902,0.0934,0.0955,0.0967,0.085,0.0835,0.0821,0.0799,0.0961,0.0961,0.1088,0.1089,0.109]},{"header":{"parameterUnit":"m.s-1","parameterCategory":1,"la1":30.2991,"la2":30.254,"lo1":-89.0895,"lo2":-89.0444,"dy":0.0017,"dx":0.0017,"nx":28,"ny":28,"refTime":"2024-12-09T03:00:00:Z","depth":0,"parameterNumber":3,"parameterNumberName":"V-component_of_WINDS"},"data":[0,0,0,0,0,0,0,0,0,0,0,0,0,0,0,0,0,0,0,0,0,0,0,0,0,0,0,0,0,0,0,0,0,0,0,0,0,0,0,0,0,0,0,0,0,0,0,0,0,0,0,0,0,0,0,0,0,0,3.9469,3.947,0,3.9566,3.9567,3.9568,3.9526,3.9524,3.9521,3.9519,3.9614,3.9618,3.9623,0,0,0,0,0,0,0,0,0,0,0,0,0,3.9243,3.9248,3.9469,3.947,3.9472,3.9566,3.9567,3.9569,3.9526,3.9524,3.9521,3.9518,3.9612,3.9618,3.9624,0,0,0,0,0,0,0,0,0,0,0,0,0,3.9341,3.9249,3.9469,3.9462,3.9462,3.9566,3.9567,3.9569,3.9527,3.9523,3.952,3.9517,3.961,3.9617,3.9624,3.9739,0,0,3.9646,3.9649,0,0,0,0,0,0,0,0,3.9335,3.9349,3.9462,3.9463,3.9463,3.9531,3.9522,3.9626,3.9528,3.9502,3.9519,3.9515,3.9589,3.9597,3.9623,3.9743,3.9747,3.9647,3.9651,3.9654,3.9656,0,0,0,0,0,0,0,3.9329,3.9345,3.9507,3.9464,3.9464,3.9453,3.9463,3.9542,3.9564,3.9504,3.9502,3.9514,3.9588,3.9616,3.9625,3.9749,3.9646,3.9653,3.9657,3.966,3.9968,3.9972,0,0,0,0,0,0,3.9322,3.9339,3.9504,3.951,3.9389,3.946,3.9471,3.9512,3.9563,3.9568,3.9517,3.9511,3.9606,3.9617,3.9628,3.9767,3.9654,3.966,3.9665,3.9964,3.9969,3.9973,0,0,0,0,0,0,3.9318,3.9338,3.95,3.9424,3.9444,3.9467,3.9514,3.9516,3.9544,3.9573,3.9576,3.9542,3.9604,3.9618,3.9712,3.9769,3.9664,3.967,3.996,3.9966,3.9971,4.0044,0,0,0,0,0,0,3.9312,3.9336,3.9381,3.9426,3.9448,3.9584,3.9518,3.9521,3.9557,3.9551,3.9597,3.9601,3.9602,3.9702,3.9719,3.9777,3.9676,3.9954,3.9962,3.9969,4.0036,4.0051,4.0064,0,0,0,0,0,3.9304,3.9396,3.9384,3.9404,3.9505,3.9588,3.9601,3.9601,3.9562,3.9607,3.9625,3.9599,3.976,3.9712,3.9731,3.9792,3.9951,3.996,3.9969,4.003,4.0048,4.0064,0,0,0,0,0,0,3.9356,3.9402,3.9388,3.9499,3.954,3.9581,3.9637,3.9621,3.9673,3.9665,3.9662,3.9672,3.977,3.979,3.9735,3.9905,3.9849,3.9862,3.9889,3.9907,3.9921,3.9914,3.9682,0,0,0,0,0,3.9381,3.9446,3.9482,3.9575,3.9597,3.9614,3.9649,3.9647,3.9689,3.9705,3.973,3.9771,3.983,3.9869,3.9925,4.0038,4.0048,4.009,4.0104,4.0115,4.0127,4.0189,4.0208,4.0002,4.0002,4.0002,0,0,3.9432,3.9465,3.9506,3.9587,3.9618,3.9685,3.9628,3.97,3.9749,3.9716,3.9807,3.9826,3.9871,3.9975,4.0022,3.9995,4.0185,4.0126,4.0135,4.0141,4.02,4.0219,4.0236,4.0008,4.0007,4.0006,0,0,3.956,3.9591,3.9673,3.9707,3.9756,3.9766,3.9786,3.983,3.9842,3.9934,3.991,3.9967,4.0069,4.0103,4.0133,4.0273,4.0252,4.0291,4.0365,4.0425,4.0441,4.0456,4.0507,4.0525,4.0303,4.0303,4.0303,0,3.9617,3.9717,3.9717,3.9792,3.9828,3.9802,3.9885,3.9917,3.9981,4.0006,3.9975,4.0104,4.0132,4.0244,4.0278,4.0303,4.0325,4.0287,4.0439,4.0454,4.0467,4.0516,4.0535,4.0308,4.0307,4.0307,4.0306,0,3.9785,3.9855,3.9915,3.9981,4.0023,4.0102,4.0112,4.0155,4.0149,4.0162,4.0255,4.0288,4.0351,4.0377,4.0371,4.0489,4.047,4.0439,4.0383,4.0491,4.0537,4.0556,4.0314,4.0312,4.0311,4.031,0,0,3.9949,4.0014,4.0036,4.0066,4.0119,4.0172,4.0248,4.0312,4.0349,4.0394,4.0458,4.0546,4.0518,4.0552,4.0548,4.0601,4.0712,4.0564,4.0565,4.0591,4.0845,4.0869,4.0891,4.0697,4.0701,4.0704,4.0841,0,4.0082,4.0219,4.0221,4.0346,4.0411,4.0387,4.0454,4.0492,4.0507,4.0563,4.0577,4.064,4.0598,4.0619,4.067,4.0688,4.0763,4.0677,4.0757,4.076,4.0748,4.0914,4.094,4.1068,4.0859,4.0862,4.0864,0,4.0255,4.0308,4.044,4.0484,4.0511,4.0572,4.063,4.0684,4.0727,4.0734,4.0773,4.0761,4.0838,4.0779,4.0885,4.0827,4.0859,4.0873,4.0877,4.0886,4.0819,4.0928,4.1109,4.1129,4.0892,4.089,4.0888,0,4.0363,4.0466,4.056,4.0585,4.0639,4.0682,4.0706,4.0745,4.0784,4.0834,4.0859,4.0916,4.0948,4.0993,4.0997,4.0953,4.1104,4.1045,4.1112,4.1112,4.1145,4.1143,4.1335,4.1164,4.1164,4.1164,4.1163,0,4.0511,4.0593,4.0609,4.0666,4.0757,4.0758,4.0848,4.0868,4.0904,4.0963,4.0945,4.1001,4.1003,4.106,4.1063,4.1151,4.1165,4.1172,4.1172,4.1175,4.1174,4.1197,4.1188,4.1169,4.1167,4.1166,4.1166,0,4.0647,4.0661,4.0761,4.0804,4.0817,4.0882,4.0918,4.0972,4.0985,4.1061,4.1079,4.1098,4.1165,4.1173,4.125,4.1252,4.1358,4.1348,4.1344,4.1343,4.141,4.1404,4.1624,4.1654,4.1462,4.1464,4.1466,0,4.0742,4.0805,4.0855,4.0895,4.0922,4.0986,4.1025,4.1028,4.107,4.1124,4.1172,4.1236,4.1289,4.1395,4.1416,4.1474,4.1466,4.1539,4.1475,4.1476,4.1469,4.1466,4.1472,4.1552,4.1554,4.1556,4.1557,0,4.0909,4.0913,4.0971,4.1033,4.1081,4.1129,4.1174,4.1207,4.1215,4.1262,4.1331,4.1372,4.1452,4.1516,4.1574,4.1597,4.1579,4.1577,4.1596,4.16,4.1596,4.16,4.138,4.1572,4.1571,4.157,4.1569,4.1568,4.1028,4.1083,4.1128,4.1194,4.1228,4.1271,4.1325,4.1345,4.1403,4.1469,4.1466,4.1542,4.1583,4.166,4.1687,4.1745,4.1721,4.1748,4.1755,4.1762,4.1769,4.1586,4.1755,4.1755,4.1754,4.1754,4.1754,0,4.1194,4.1222,4.1283,4.1348,4.14,4.1379,4.1428,4.1472,4.154,4.1581,4.1633,4.1712,4.1775,4.18,4.1861,4.1903,4.1896,4.1919,4.1917,4.1922,4.1787,4.1765,4.1924,4.1924,4.1924,4.1924,4.1924,4.1924,4.1287,4.1381,4.139,4.15,4.1526,4.1602,4.1632,4.1671,4.1704,4.1794,4.1846,4.1863,4.1897,4.1961,4.2017,4.2023,4.2047,4.2074,4.2076,4.1949,4.1932,4.1915,4.1895,4.2078,4.2079,4.2206,4.2208,4.2208]}]]